GLOBALSTAR M023 [+]

Last updated on Fri Dec 29 2023 00:02:56 GMT+0000 (Coordinated Universal Time)

1 25621U 99004A 23362.12044147 -.00000183 00000+0 -43802-3 0 9990 2 25621 52.0108 248.7377 0010673 22.6948 123.7065 12.62442264147986
UTC large
Height (km)
Speed (km/s)
/
Latitude / Longitude
Inclination (degrees)
Orbital Period (minutes)
Azimuth
Elevation
Range (km)
Doppler Factor

Next 0 passes for location: London (51.5072 / 0.1276)

Sorry there are no passes over London.